,,PA_Meas_PMT16A,,PR_Meas_QMR101_102,,RH_Meas_QMH101,,SR_Meas_QMS101,,TA_Meas_QMH101,,GenWind,,GenWind,
time,status,PA,status,PR,status,RH,status,SR,status,TA,status,DirAvg,status,SpdAvg,
2012-04-09, 00:00:04,VALID,917.895,VALID,0,VALID,95.8568,VALID,0.107441,VALID,20.3628,VALID,140,VALID,1.78594,
2012-04-09, 00:01:04,VALID,917.881,VALID,0,VALID,95.8797,VALID,0.107441,VALID,20.3628,VALID,127,VALID,1.10391,
2012-04-09, 00:02:04,VALID,917.872,VALID,0,VALID,95.8721,VALID,0,VALID,20.3643,VALID,102,VALID,1.11289,
2012-04-09, 00:03:04,VALID,917.839,VALID,0,VALID,95.8645,VALID,0,VALID,20.3238,VALID,132,VALID,1.60156,
2012-04-09, 00:04:04,VALID,917.814,VALID,0,VALID,95.8721,VALID,0,VALID,20.3643,VALID,132,VALID,2.08789,
2012-04-09, 00:05:04,VALID,917.83,VALID,0,VALID,95.8111,VALID,0,VALID,20.3643,VALID,140,VALID,3.06367,
2012-04-09, 00:06:04,VALID,917.795,VALID,0,VALID,95.651,VALID,0,VALID,20.4033,VALID,125,VALID,1.70859,
2012-04-09, 00:07:04,VALID,917.766,VALID,0,VALID,95.529,VALID,0,VALID,20.4018,VALID,103,VALID,1.41641,
2012-04-09, 00:08:04,VALID,917.76,VALID,0,VALID,95.3994,VALID,0,VALID,20.4213,VALID,127,VALID,1.30156,
2012-04-09, 00:09:04,VALID,917.722,VALID,0,VALID,95.3156,VALID,0,VALID,20.3823,VALID,68,VALID,2.52734,
2012-04-09, 00:10:04,VALID,917.749,VALID,0,VALID,95.2775,VALID,0,VALID,20.3823,VALID,152,VALID,1.39531,
2012-04-09, 00:11:04,VALID,917.726,VALID,0,VALID,95.2775,VALID,0.107441,VALID,20.3823,VALID,119,VALID,2.08125,
2012-04-09, 00:12:04,VALID,917.674,VALID,0,VALID,95.1783,VALID,0,VALID,20.3628,VALID,78,VALID,2.28867,
2012-04-09, 00:13:04,VALID,917.646,VALID,0,VALID,95.125,VALID,0,VALID,20.4018,VALID,111,VALID,1.41172,
2012-04-09, 00:14:04,VALID,917.65,VALID,0,VALID,95.1097,VALID,0,VALID,20.3823,VALID,113,VALID,1.07266,
2012-04-09, 00:15:04,VALID,917.62,VALID,0,VALID,95.1021,VALID,0,VALID,20.3823,VALID,102,VALID,2.23477,
2012-04-09, 00:16:04,VALID,917.573,VALID,0,VALID,95.1783,VALID,0,VALID,20.3628,VALID,151,VALID,1.17773,
2012-04-09, 00:17:04,VALID,917.553,VALID,0,VALID,95.186,VALID,0,VALID,20.3628,VALID,124,VALID,1.08945,
2012-04-09, 00:18:04,VALID,917.561,VALID,0,VALID,95.186,VALID,0,VALID,20.3433,VALID,129,VALID,1.91719,
2012-04-09, 00:19:04,VALID,917.482,VALID,0,VALID,95.1174,VALID,0,VALID,20.3838,VALID,136,VALID,1.83945,
2012-04-09, 00:20:04,VALID,917.498,VALID,0,VALID,95.2088,VALID,0.107441,VALID,20.3823,VALID,82,VALID,0.459766,
2012-04-09, 00:21:04,VALID,917.487,VALID,0,VALID,95.1097,VALID,0.107441,VALID,20.3628,VALID,127,VALID,1.44258,
2012-04-09, 00:22:04,VALID,917.476,VALID,0,VALID,95.064,VALID,0.107441,VALID,20.3628,VALID,131,VALID,2.65273,
2012-04-09, 00:23:04,VALID,917.464,VALID,0,VALID,94.9954,VALID,0,VALID,20.3838,VALID,142,VALID,1.79609,
2012-04-09, 00:24:04,VALID,917.428,VALID,0,VALID,94.8429,VALID,0,VALID,20.4033,VALID,119,VALID,2.20937,
2012-04-09, 00:25:04,VALID,917.416,VALID,0,VALID,94.7972,VALID,0,VALID,20.3838,VALID,142,VALID,1.07773,
2012-04-09, 00:26:04,VALID,917.417,VALID,0,VALID,94.8124,VALID,0,VALID,20.3643,VALID,146,VALID,1.49453,
2012-04-09, 00:27:04,VALID,917.399,VALID,0,VALID,94.7514,VALID,0,VALID,20.4049,VALID,135,VALID,2.19102,
2012-04-09, 00:28:04,VALID,917.355,VALID,0,VALID,94.7438,VALID,0,VALID,20.3854,VALID,157,VALID,1.43242,
2012-04-09, 00:29:04,VALID,917.335,VALID,0,VALID,94.6981,VALID,0,VALID,20.4049,VALID,164,VALID,1.54414,
2012-04-09, 00:30:04,VALID,917.323,VALID,0,VALID,94.6523,VALID,0,VALID,20.3838,VALID,157,VALID,0.735547,
2012-04-09, 00:31:04,VALID,917.308,VALID,0,VALID,94.4922,VALID,0,VALID,20.4033,VALID,153,VALID,1.82773,
2012-04-09, 00:32:04,VALID,917.312,VALID,0,VALID,94.2864,VALID,0,VALID,20.4228,VALID,144,VALID,2.47969,
2012-04-09, 00:33:04,VALID,917.285,VALID,0,VALID,94.0958,VALID,0,VALID,20.4618,VALID,195,VALID,1.13398,
2012-04-09, 00:34:04,VALID,917.279,VALID,0,VALID,94.1568,VALID,0,VALID,20.4618,VALID,140,VALID,1.05586,
2012-04-09, 00:35:04,VALID,917.251,VALID,0,VALID,94.2178,VALID,0,VALID,20.4423,VALID,176,VALID,1.21484,
2012-04-09, 00:36:04,VALID,917.266,VALID,0,VALID,94.2407,VALID,0,VALID,20.4033,VALID,169,VALID,1.14219,
2012-04-09, 00:37:04,VALID,917.25,VALID,0,VALID,94.3779,VALID,0,VALID,20.4244,VALID,169,VALID,0.389453,
2012-04-09, 00:38:04,VALID,917.249,VALID,0,VALID,94.4922,VALID,0,VALID,20.4033,VALID,169,VALID,0.550781,
2012-04-09, 00:39:04,VALID,917.246,VALID,0,VALID,94.5456,VALID,0,VALID,20.3643,VALID,169,VALID,0.658594,
2012-04-09, 00:40:04,VALID,917.235,VALID,0,VALID,94.5761,VALID,0,VALID,20.3643,VALID,197,VALID,0.742969,
2012-04-09, 00:41:04,VALID,917.236,VALID,0,VALID,94.5837,VALID,0,VALID,20.3643,VALID,156,VALID,0.978516,
2012-04-09, 00:42:04,VALID,917.181,VALID,0,VALID,94.6676,VALID,0,VALID,20.3238,VALID,156,VALID,0.457812,
2012-04-09, 00:43:04,VALID,917.2,VALID,0,VALID,94.6828,VALID,0,VALID,20.3659,VALID,157,VALID,0.971094,
2012-04-09, 00:44:04,VALID,917.186,VALID,0,VALID,94.6142,VALID,0,VALID,20.3058,VALID,156,VALID,1.42539,
2012-04-09, 00:45:04,VALID,917.181,VALID,0,VALID,94.6066,VALID,0,VALID,20.3464,VALID,156,VALID,1.00312,
2012-04-09, 00:46:04,VALID,917.138,VALID,0,VALID,94.6218,VALID,0,VALID,20.3058,VALID,148,VALID,1.20391,
2012-04-09, 00:47:04,VALID,917.133,VALID,0,VALID,94.6447,VALID,0,VALID,20.3058,VALID,163,VALID,1.23945,
2012-04-09, 00:48:05,VALID,917.096,VALID,0,VALID,94.66,VALID,0,VALID,20.3074,VALID,172,VALID,1.12109,
2012-04-09, 00:49:05,VALID,917.101,VALID,0,VALID,94.7514,VALID,0,VALID,20.2863,VALID,172,VALID,0.640625,
2012-04-09, 00:50:05,VALID,917.077,VALID,0,VALID,94.7896,VALID,0,VALID,20.2684,VALID,147,VALID,1.39648,
2012-04-09, 00:51:05,VALID,917.065,VALID,0,VALID,94.8429,VALID,0,VALID,20.2489,VALID,146,VALID,0.834375,
2012-04-09, 00:52:05,VALID,917.063,VALID,0,VALID,94.8505,VALID,0,VALID,20.2083,VALID,124,VALID,1.39258,
2012-04-09, 00:53:05,VALID,917.039,VALID,0,VALID,94.8429,VALID,0,VALID,20.2278,VALID,120,VALID,0.944922,
2012-04-09, 00:54:05,VALID,917.062,VALID,0,VALID,94.7972,VALID,0,VALID,20.2473,VALID,135,VALID,1.28984,
2012-04-09, 00:55:05,VALID,917.033,VALID,0,VALID,94.6447,VALID,0,VALID,20.2473,VALID,143,VALID,1.38398,
2012-04-09, 00:56:05,VALID,917.093,VALID,0,VALID,94.6828,VALID,0,VALID,20.2879,VALID,138,VALID,0.523047,
2012-04-09, 00:57:05,VALID,917.109,VALID,0,VALID,94.7362,VALID,0,VALID,20.2684,VALID,138,VALID,0.524609,
2012-04-09, 00:58:05,VALID,917.103,VALID,0,VALID,94.7972,VALID,0,VALID,20.2489,VALID,138,VALID,0.00117188,
2012-04-09, 00:59:05,VALID,917.141,VALID,0,VALID,94.8505,VALID,0,VALID,20.2473,VALID,138,VALID,0.530469,
2012-04-09, 01:00:05,VALID,917.124,VALID,0,VALID,94.9649,VALID,0,VALID,20.2668,VALID,138,VALID,0.0484375,
2012-04-09, 01:01:05,VALID,917.153,VALID,0,VALID,94.9801,VALID,0,VALID,20.2684,VALID,138,VALID,0.438281,
2012-04-09, 01:02:05,VALID,917.122,VALID,0,VALID,95.0259,VALID,0,VALID,20.2083,VALID,356,VALID,1.4707,
2012-04-09, 01:03:05,VALID,917.171,VALID,0,VALID,95.2622,VALID,0,VALID,20.1318,VALID,357,VALID,0.73125,
2012-04-09, 01:04:05,VALID,917.156,VALID,0,VALID,95.5062,VALID,0,VALID,20.0718,VALID,357,VALID,0.191016,
2012-04-09, 01:05:05,VALID,917.138,VALID,0,VALID,95.712,VALID,0,VALID,20.0733,VALID,357,VALID,0.466797,
2012-04-09, 01:06:05,VALID,917.157,VALID,0,VALID,95.8797,VALID,0,VALID,20.0523,VALID,357,VALID,0.206641,
2012-04-09, 01:07:05,VALID,917.171,VALID,0,VALID,95.9788,VALID,0,VALID,20.0538,VALID,357,VALID,0.370703,
2012-04-09, 01:08:05,VALID,917.156,VALID,0,VALID,96.0627,VALID,0,VALID,19.9743,VALID,357,VALID,0.00625,
2012-04-09, 01:09:05,VALID,917.156,VALID,0,VALID,96.1618,VALID,0,VALID,19.9743,VALID,357,VALID,0.516406,
2012-04-09, 01:10:05,VALID,917.144,VALID,0,VALID,96.2914,VALID,0,VALID,19.9548,VALID,357,VALID,0.639453,
2012-04-09, 01:11:05,VALID,917.135,VALID,0,VALID,96.2456,VALID,0,VALID,19.9158,VALID,357,VALID,0.976563,
2012-04-09, 01:12:05,VALID,917.128,VALID,0,VALID,96.3066,VALID,0,VALID,19.8963,VALID,357,VALID,0.335547,
2012-04-09, 01:13:05,VALID,917.1,VALID,0,VALID,96.4057,VALID,0,VALID,19.8963,VALID,357,VALID,0.0175781,
2012-04-09, 01:14:05,VALID,917.097,VALID,0,VALID,96.4591,VALID,0,VALID,19.8783,VALID,357,VALID,0,
2012-04-09, 01:15:05,VALID,917.122,VALID,0,VALID,96.5201,VALID,0,VALID,19.8573,VALID,357,VALID,0,
2012-04-09, 01:16:05,VALID,917.122,VALID,0,VALID,96.5201,VALID,0,VALID,19.8783,VALID,357,VALID,0,
2012-04-09, 01:17:05,VALID,917.114,VALID,0,VALID,96.5734,VALID,0,VALID,19.8378,VALID,357,VALID,0,
2012-04-09, 01:18:05,VALID,917.131,VALID,0,VALID,96.5811,VALID,0,VALID,19.8588,VALID,357,VALID,0,
2012-04-09, 01:19:05,VALID,917.128,VALID,0,VALID,96.5963,VALID,0,VALID,19.8198,VALID,357,VALID,0.0828125,
2012-04-09, 01:20:05,VALID,917.122,VALID,0,VALID,96.6725,VALID,0,VALID,19.8198,VALID,357,VALID,0,
2012-04-09, 01:21:05,VALID,917.107,VALID,0,VALID,96.703,VALID,0,VALID,19.8003,VALID,357,VALID,0,
2012-04-09, 01:22:05,VALID,917.114,VALID,0,VALID,96.7564,VALID,0,VALID,19.7988,VALID,357,VALID,0,
2012-04-09, 01:23:05,VALID,917.09,VALID,0,VALID,96.7945,VALID,0,VALID,19.7988,VALID,357,VALID,0,
2012-04-09, 01:24:05,VALID,917.103,VALID,0,VALID,96.8021,VALID,0,VALID,19.7973,VALID,357,VALID,0.319141,
2012-04-09, 01:25:05,VALID,917.075,VALID,0,VALID,96.8631,VALID,0,VALID,19.7973,VALID,357,VALID,0.214844,
2012-04-09, 01:26:05,VALID,917.069,VALID,0,VALID,96.8936,VALID,0,VALID,19.8183,VALID,357,VALID,0,
2012-04-09, 01:27:05,VALID,917.051,VALID,0,VALID,96.9775,VALID,0,VALID,19.8363,VALID,357,VALID,0,
2012-04-09, 01:28:05,VALID,917.036,VALID,0,VALID,96.9241,VALID,0,VALID,19.8573,VALID,357,VALID,0.0015625,
2012-04-09, 01:29:05,VALID,917.006,VALID,0,VALID,96.9089,VALID,0,VALID,19.8378,VALID,357,VALID,0,
2012-04-09, 01:30:05,VALID,917.005,VALID,0,VALID,96.947,VALID,0,VALID,19.8153,VALID,357,VALID,0.542969,
2012-04-09, 01:31:05,VALID,916.99,VALID,0,VALID,96.9394,VALID,0,VALID,19.8363,VALID,357,VALID,0.583203,
2012-04-09, 01:32:05,VALID,916.985,VALID,0,VALID,96.9851,VALID,0,VALID,19.8168,VALID,357,VALID,0.382813,
2012-04-09, 01:33:05,VALID,916.963,VALID,0,VALID,97.008,VALID,0,VALID,19.7973,VALID,357,VALID,0.400781,
2012-04-09, 01:34:05,VALID,916.956,VALID,0,VALID,97.0232,VALID,0,VALID,19.8768,VALID,357,VALID,0.304297,
2012-04-09, 01:35:05,VALID,916.944,VALID,0,VALID,97.0537,VALID,0,VALID,19.8363,VALID,357,VALID,0,
2012-04-09, 01:36:05,VALID,916.931,VALID,0,VALID,97.0537,VALID,0,VALID,19.8363,VALID,357,VALID,0,
2012-04-09, 01:37:05,VALID,916.897,VALID,0,VALID,97.0461,VALID,0,VALID,19.8558,VALID,357,VALID,0,
2012-04-09, 01:38:05,VALID,916.894,VALID,0,VALID,97.0918,VALID,0,VALID,19.8768,VALID,357,VALID,0.0933594,
2012-04-09, 01:39:05,VALID,916.9,VALID,0,VALID,97.1147,VALID,0,VALID,19.8963,VALID,357,VALID,0,
2012-04-09, 01:40:05,VALID,916.903,VALID,0,VALID,97.1147,VALID,0,VALID,19.9158,VALID,357,VALID,0,
2012-04-09, 01:41:05,VALID,916.864,VALID,0,VALID,97.0918,VALID,0,VALID,19.9158,VALID,357,VALID,0,
2012-04-09, 01:42:05,VALID,916.86,VALID,0,VALID,96.9927,VALID,0,VALID,19.8768,VALID,357,VALID,0,
2012-04-09, 01:43:05,VALID,916.87,VALID,0,VALID,96.9851,VALID,0,VALID,19.8183,VALID,357,VALID,0.2875,
2012-04-09, 01:44:05,VALID,916.843,VALID,0,VALID,96.9622,VALID,0,VALID,19.7973,VALID,357,VALID,0.336719,
2012-04-09, 01:45:05,VALID,916.853,VALID,0,VALID,96.9851,VALID,0,VALID,19.7793,VALID,357,VALID,0.00585938,
2012-04-09, 01:46:05,VALID,916.862,VALID,0,VALID,97.0232,VALID,0,VALID,19.7388,VALID,357,VALID,0,
2012-04-09, 01:47:05,VALID,916.836,VALID,0.2,VALID,97.0461,VALID,0,VALID,19.7388,VALID,357,VALID,0,
2012-04-09, 01:48:05,VALID,916.822,VALID,0,VALID,97.1071,VALID,0,VALID,19.7208,VALID,357,VALID,0,
2012-04-09, 01:49:05,VALID,916.789,VALID,0,VALID,97.1299,VALID,0,VALID,19.7403,VALID,357,VALID,0.555078,
2012-04-09, 01:50:05,VALID,916.752,VALID,0,VALID,97.1071,VALID,0,VALID,19.7388,VALID,357,VALID,0.671484,
2012-04-09, 01:51:05,VALID,916.732,VALID,0,VALID,97.1833,VALID,0,VALID,19.7598,VALID,357,VALID,0.756641,
2012-04-09, 01:52:05,VALID,916.726,VALID,0,VALID,97.1909,VALID,0,VALID,19.7583,VALID,357,VALID,0.663281,
2012-04-09, 01:53:05,VALID,916.719,VALID,0,VALID,97.1681,VALID,0,VALID,19.7793,VALID,357,VALID,0.717969,
2012-04-09, 01:54:05,VALID,916.736,VALID,0,VALID,97.1986,VALID,0,VALID,19.7388,VALID,347,VALID,0.712109,
2012-04-09, 01:55:05,VALID,916.729,VALID,0,VALID,97.1757,VALID,0,VALID,19.7598,VALID,347,VALID,0.265625,
2012-04-09, 01:56:05,VALID,916.699,VALID,0,VALID,97.1833,VALID,0,VALID,19.7598,VALID,347,VALID,0,
2012-04-09, 01:57:05,VALID,916.672,VALID,0,VALID,97.1833,VALID,0,VALID,19.7793,VALID,347,VALID,0.564062,
2012-04-09, 01:58:05,VALID,916.699,VALID,0,VALID,97.1909,VALID,0,VALID,19.7388,VALID,347,VALID,0,
2012-04-09, 01:59:05,VALID,916.666,VALID,0,VALID,97.1909,VALID,0,VALID,19.7988,VALID,347,VALID,0.266406,
2012-04-09, 02:00:05,VALID,916.637,VALID,0,VALID,97.229,VALID,0,VALID,19.7988,VALID,347,VALID,0.28125,
2012-04-09, 02:01:05,VALID,916.642,VALID,0,VALID,97.2367,VALID,0,VALID,19.8183,VALID,347,VALID,0.517969,
2012-04-09, 02:02:05,VALID,916.661,VALID,0,VALID,97.2519,VALID,0,VALID,19.8168,VALID,347,VALID,0.378906,
2012-04-09, 02:03:05,VALID,916.636,VALID,0,VALID,97.2595,VALID,0,VALID,19.8183,VALID,347,VALID,0.596484,
2012-04-09, 02:04:05,VALID,916.607,VALID,0,VALID,97.2595,VALID,0,VALID,19.8573,VALID,347,VALID,0.657031,
2012-04-09, 02:05:05,VALID,916.623,VALID,0,VALID,97.2595,VALID,0,VALID,19.8363,VALID,347,VALID,0.698047,
2012-04-09, 02:06:05,VALID,916.599,VALID,0,VALID,97.2748,VALID,0,VALID,19.8573,VALID,347,VALID,0.686328,
2012-04-09, 02:07:05,VALID,916.586,VALID,0,VALID,97.2824,VALID,0,VALID,19.8963,VALID,347,VALID,0.528906,
2012-04-09, 02:08:05,VALID,916.594,VALID,0,VALID,97.29,VALID,0,VALID,19.8963,VALID,347,VALID,0.453516,
2012-04-09, 02:09:05,VALID,916.608,VALID,0,VALID,97.2824,VALID,0,VALID,19.9158,VALID,347,VALID,0.154297,
2012-04-09, 02:10:05,VALID,916.574,VALID,0,VALID,97.2672,VALID,0,VALID,19.9158,VALID,347,VALID,0.148438,
2012-04-09, 02:11:05,VALID,916.56,VALID,0,VALID,97.29,VALID,0,VALID,19.8948,VALID,347,VALID,0.0449219,
2012-04-09, 02:12:05,VALID,916.569,VALID,0,VALID,97.2977,VALID,0,VALID,19.8963,VALID,347,VALID,0.348047,
2012-04-09, 02:13:05,VALID,916.554,VALID,0,VALID,97.3129,VALID,0,VALID,19.9143,VALID,3,VALID,0.886328,
2012-04-09, 02:14:05,VALID,916.561,VALID,0,VALID,97.29,VALID,0,VALID,19.9158,VALID,4,VALID,0.63125,
2012-04-09, 02:15:05,VALID,916.494,VALID,0,VALID,97.3053,VALID,0,VALID,19.9143,VALID,4,VALID,0.563281,
2012-04-09, 02:16:05,VALID,916.521,VALID,0,VALID,97.3053,VALID,0,VALID,19.9338,VALID,4,VALID,0.0625,
2012-04-09, 02:17:05,VALID,916.519,VALID,0,VALID,97.29,VALID,0,VALID,19.9143,VALID,4,VALID,0.657031,
2012-04-09, 02:18:05,VALID,916.507,VALID,0,VALID,97.3281,VALID,0,VALID,19.9548,VALID,4,VALID,0.00195313,
2012-04-09, 02:19:05,VALID,916.499,VALID,0,VALID,97.3129,VALID,0,VALID,19.9548,VALID,4,VALID,0.760547,
2012-04-09, 02:20:05,VALID,916.485,VALID,0,VALID,97.3281,VALID,0,VALID,19.9143,VALID,4,VALID,0.553906,
2012-04-09, 02:21:05,VALID,916.502,VALID,0,VALID,97.351,VALID,0,VALID,19.9338,VALID,4,VALID,0.300391,
2012-04-09, 02:22:05,VALID,916.476,VALID,0,VALID,97.3358,VALID,0,VALID,19.9548,VALID,4,VALID,0.262891,
2012-04-09, 02:23:05,VALID,916.479,VALID,0,VALID,97.3281,VALID,0,VALID,19.9158,VALID,4,VALID,0.7125,
2012-04-09, 02:24:05,VALID,916.485,VALID,0,VALID,97.3281,VALID,0.107441,VALID,19.8948,VALID,4,VALID,0.676953,
2012-04-09, 02:25:05,VALID,916.452,VALID,0,VALID,97.3358,VALID,0,VALID,19.9158,VALID,4,VALID,0.655469,
2012-04-09, 02:26:05,VALID,916.441,VALID,0,VALID,97.3586,VALID,0.107441,VALID,19.9158,VALID,4,VALID,0,
2012-04-09, 02:27:05,VALID,916.431,VALID,0,VALID,97.3663,VALID,0,VALID,19.8948,VALID,4,VALID,0,
2012-04-09, 02:28:05,VALID,916.446,VALID,0,VALID,97.351,VALID,0.107441,VALID,19.9158,VALID,4,VALID,0.486719,
2012-04-09, 02:29:05,VALID,916.422,VALID,0,VALID,97.351,VALID,0,VALID,19.8963,VALID,4,VALID,0,
2012-04-09, 02:30:05,VALID,916.389,VALID,0,VALID,97.3434,VALID,0,VALID,19.8768,VALID,4,VALID,0,
2012-04-09, 02:31:05,VALID,916.395,VALID,0,VALID,97.3358,VALID,0,VALID,19.8768,VALID,4,VALID,0,
2012-04-09, 02:32:05,VALID,916.384,VALID,0,VALID,97.3358,VALID,0,VALID,19.8768,VALID,4,VALID,0,
2012-04-09, 02:33:05,VALID,916.36,VALID,0,VALID,97.3434,VALID,0,VALID,19.8963,VALID,4,VALID,0,
2012-04-09, 02:34:05,VALID,916.35,VALID,0,VALID,97.3739,VALID,0,VALID,19.8963,VALID,4,VALID,0,
2012-04-09, 02:35:05,VALID,916.341,VALID,0,VALID,97.3739,VALID,0,VALID,19.8963,VALID,4,VALID,0.110547,
2012-04-09, 02:36:05,VALID,916.333,VALID,0,VALID,97.3815,VALID,0,VALID,19.8963,VALID,4,VALID,0.0253906,
2012-04-09, 02:37:05,VALID,916.295,VALID,0,VALID,97.3815,VALID,0,VALID,19.9158,VALID,4,VALID,0.483594,
2012-04-09, 02:38:05,VALID,916.315,VALID,0,VALID,97.3968,VALID,0,VALID,19.9158,VALID,4,VALID,0.539844,
2012-04-09, 02:39:05,VALID,916.256,VALID,0,VALID,97.3891,VALID,0,VALID,19.8963,VALID,4,VALID,0.173828,
2012-04-09, 02:40:05,VALID,916.271,VALID,0,VALID,97.3968,VALID,0,VALID,19.9173,VALID,4,VALID,0.211719,
2012-04-09, 02:41:05,VALID,916.238,VALID,0,VALID,97.3968,VALID,0,VALID,19.9173,VALID,4,VALID,0.512109,
2012-04-09, 02:42:05,VALID,916.252,VALID,0,VALID,97.4044,VALID,0,VALID,19.9173,VALID,4,VALID,0.872266,
2012-04-09, 02:43:05,VALID,916.185,VALID,0,VALID,97.3815,VALID,0,VALID,19.9173,VALID,4,VALID,0.492188,
2012-04-09, 02:44:05,VALID,916.213,VALID,0,VALID,97.4044,VALID,0,VALID,19.8978,VALID,4,VALID,0.739844,
2012-04-09, 02:45:05,VALID,916.201,VALID,0,VALID,97.4044,VALID,0,VALID,19.8768,VALID,4,VALID,0.201562,
2012-04-09, 02:46:05,VALID,916.217,VALID,0,VALID,97.3891,VALID,0,VALID,19.8783,VALID,4,VALID,0.448438,
2012-04-09, 02:47:05,VALID,916.205,VALID,0,VALID,97.3891,VALID,0,VALID,19.9173,VALID,4,VALID,0.343359,
2012-04-09, 02:48:05,VALID,916.178,VALID,0,VALID,97.3891,VALID,0,VALID,19.8978,VALID,4,VALID,0.524609,
2012-04-09, 02:49:05,VALID,916.19,VALID,0,VALID,97.4196,VALID,0,VALID,19.8978,VALID,4,VALID,0.393359,
2012-04-09, 02:50:05,VALID,916.15,VALID,0,VALID,97.4044,VALID,0,VALID,19.8783,VALID,4,VALID,0.205859,
2012-04-09, 02:51:05,VALID,916.169,VALID,0,VALID,97.4349,VALID,0,VALID,19.8783,VALID,4,VALID,0.0597656,
2012-04-09, 02:52:05,VALID,916.157,VALID,0,VALID,97.4044,VALID,0,VALID,19.8783,VALID,4,VALID,0,
2012-04-09, 02:53:05,VALID,916.152,VALID,0,VALID,97.4501,VALID,0,VALID,19.8378,VALID,4,VALID,0.231641,
2012-04-09, 02:54:05,VALID,916.097,VALID,0,VALID,97.4273,VALID,0,VALID,19.8573,VALID,4,VALID,0,
2012-04-09, 02:55:05,VALID,916.086,VALID,0,VALID,97.4349,VALID,0,VALID,19.8378,VALID,4,VALID,0.282031,
2012-04-09, 02:56:05,VALID,916.088,VALID,0,VALID,97.4273,VALID,0.107441,VALID,19.8168,VALID,4,VALID,0.643359,
2012-04-09, 02:57:05,VALID,916.091,VALID,0,VALID,97.4349,VALID,0,VALID,19.8573,VALID,4,VALID,0.0828125,
2012-04-09, 02:58:05,VALID,916.103,VALID,0,VALID,97.4425,VALID,0.107441,VALID,19.8768,VALID,4,VALID,0.68125,
2012-04-09, 02:59:05,VALID,916.125,VALID,0,VALID,97.4577,VALID,0,VALID,19.8768,VALID,4,VALID,0.258594,
2012-04-09, 03:00:05,VALID,916.084,VALID,0,VALID,97.4577,VALID,0,VALID,19.8963,VALID,4,VALID,0,
2012-04-09, 03:01:05,VALID,916.086,VALID,0,VALID,97.4501,VALID,0,VALID,19.8363,VALID,4,VALID,0,
2012-04-09, 03:02:05,VALID,916.065,VALID,0,VALID,97.4577,VALID,0,VALID,19.8378,VALID,4,VALID,0.172266,
2012-04-09, 03:03:05,VALID,916.107,VALID,0,VALID,97.4501,VALID,0,VALID,19.8378,VALID,4,VALID,0.344922,
2012-04-09, 03:04:05,VALID,916.097,VALID,0,VALID,97.4501,VALID,0,VALID,19.8573,VALID,4,VALID,0,
2012-04-09, 03:05:05,VALID,916.073,VALID,0,VALID,97.4654,VALID,0,VALID,19.8573,VALID,4,VALID,0.00429688,
2012-04-09, 03:06:05,VALID,916.051,VALID,0,VALID,97.4577,VALID,0,VALID,19.8363,VALID,4,VALID,0.00195313,
2012-04-09, 03:07:05,VALID,916.068,VALID,0,VALID,97.473,VALID,0,VALID,19.8573,VALID,4,VALID,0.54375,
2012-04-09, 03:08:05,VALID,916.06,VALID,0,VALID,97.4501,VALID,0,VALID,19.8573,VALID,4,VALID,0.437891,
2012-04-09, 03:09:05,VALID,916.03,VALID,0,VALID,97.473,VALID,0,VALID,19.8558,VALID,4,VALID,0.388281,
2012-04-09, 03:10:05,VALID,916.041,VALID,0,VALID,97.473,VALID,0,VALID,19.8558,VALID,4,VALID,0.467578,
2012-04-09, 03:11:05,VALID,916,VALID,0,VALID,97.4882,VALID,0,VALID,19.8768,VALID,4,VALID,0.661328,
2012-04-09, 03:12:05,VALID,915.987,VALID,0,VALID,97.4806,VALID,0,VALID,19.8963,VALID,4,VALID,0.533984,
2012-04-09, 03:13:05,VALID,915.971,VALID,0,VALID,97.4806,VALID,0.107441,VALID,19.8768,VALID,4,VALID,0.860547,
2012-04-09, 03:14:05,VALID,915.959,VALID,0,VALID,97.4959,VALID,0,VALID,19.8573,VALID,4,VALID,0.876953,
2012-04-09, 03:15:05,VALID,915.927,VALID,0,VALID,97.4959,VALID,0,VALID,19.8183,VALID,4,VALID,0.867188,
2012-04-09, 03:16:05,VALID,915.912,VALID,0,VALID,97.4654,VALID,0,VALID,19.7988,VALID,4,VALID,0.894141,
2012-04-09, 03:17:05,VALID,915.922,VALID,0,VALID,97.473,VALID,0,VALID,19.7598,VALID,4,VALID,0.7,
2012-04-09, 03:18:05,VALID,915.935,VALID,0,VALID,97.473,VALID,0,VALID,19.7598,VALID,4,VALID,0.811719,
2012-04-09, 03:19:05,VALID,915.914,VALID,0,VALID,97.4806,VALID,0,VALID,19.7988,VALID,4,VALID,0.833203,
2012-04-09, 03:20:05,VALID,915.933,VALID,0,VALID,97.4806,VALID,0,VALID,19.7988,VALID,4,VALID,0.548047,
2012-04-09, 03:21:05,VALID,915.937,VALID,0,VALID,97.5111,VALID,0,VALID,19.7988,VALID,4,VALID,0.491406,
2012-04-09, 03:22:05,VALID,915.927,VALID,0,VALID,97.4959,VALID,0,VALID,19.7793,VALID,4,VALID,0,
2012-04-09, 03:23:05,VALID,915.94,VALID,0,VALID,97.5035,VALID,0,VALID,19.7793,VALID,4,VALID,0.189453,
2012-04-09, 03:24:05,VALID,915.93,VALID,0,VALID,97.5035,VALID,0,VALID,19.7793,VALID,4,VALID,0.121094,
2012-04-09, 03:25:05,VALID,915.949,VALID,0,VALID,97.5111,VALID,0,VALID,19.7598,VALID,4,VALID,0,
2012-04-09, 03:26:05,VALID,915.938,VALID,0,VALID,97.4882,VALID,0,VALID,19.7598,VALID,4,VALID,0,
2012-04-09, 03:27:05,VALID,915.943,VALID,0,VALID,97.5111,VALID,0,VALID,19.7793,VALID,4,VALID,0,
2012-04-09, 03:28:05,VALID,915.922,VALID,0,VALID,97.5035,VALID,0,VALID,19.7403,VALID,4,VALID,0.421484,
2012-04-09, 03:29:05,VALID,915.924,VALID,0,VALID,97.5187,VALID,0,VALID,19.7403,VALID,4,VALID,0.191797,
2012-04-09, 03:30:05,VALID,915.92,VALID,0,VALID,97.5111,VALID,0,VALID,19.7598,VALID,4,VALID,0.256641,
2012-04-09, 03:31:05,VALID,915.924,VALID,0,VALID,97.5111,VALID,0,VALID,19.7808,VALID,4,VALID,0,
2012-04-09, 03:32:05,VALID,915.939,VALID,0,VALID,97.5111,VALID,0,VALID,19.7793,VALID,4,VALID,0,
2012-04-09, 03:33:05,VALID,915.97,VALID,0,VALID,97.5187,VALID,0,VALID,19.7793,VALID,4,VALID,0,
2012-04-09, 03:34:05,VALID,915.913,VALID,0,VALID,97.534,VALID,0,VALID,19.7403,VALID,4,VALID,0,
2012-04-09, 03:35:05,VALID,915.938,VALID,0,VALID,97.5111,VALID,0,VALID,19.7388,VALID,4,VALID,0,
2012-04-09, 03:36:05,VALID,915.92,VALID,0,VALID,97.534,VALID,0,VALID,19.7613,VALID,4,VALID,0,
2012-04-09, 03:37:05,VALID,915.921,VALID,0,VALID,97.5264,VALID,0,VALID,19.7598,VALID,4,VALID,0,
2012-04-09, 03:38:05,VALID,915.907,VALID,0,VALID,97.5264,VALID,0,VALID,19.7793,VALID,4,VALID,0,
2012-04-09, 03:39:04,VALID,915.913,VALID,0,VALID,97.5264,VALID,0,VALID,19.7778,VALID,4,VALID,0,
2012-04-09, 03:40:04,VALID,915.903,VALID,0,VALID,97.534,VALID,0,VALID,19.7793,VALID,4,VALID,0,
2012-04-09, 03:41:04,VALID,915.888,VALID,0,VALID,97.5416,VALID,0,VALID,19.7193,VALID,4,VALID,0,
2012-04-09, 03:42:04,VALID,915.857,VALID,0,VALID,97.5569,VALID,0,VALID,19.7013,VALID,4,VALID,0,
2012-04-09, 03:43:04,VALID,915.866,VALID,0,VALID,97.5645,VALID,0,VALID,19.6803,VALID,4,VALID,0.127344,
2012-04-09, 03:44:04,VALID,915.858,VALID,0,VALID,97.5721,VALID,0,VALID,19.6608,VALID,4,VALID,0,
2012-04-09, 03:45:04,VALID,915.839,VALID,0,VALID,97.5416,VALID,0,VALID,19.6428,VALID,4,VALID,0,
2012-04-09, 03:46:04,VALID,915.877,VALID,0,VALID,97.5492,VALID,0,VALID,19.6428,VALID,4,VALID,0.110156,
2012-04-09, 03:47:04,VALID,915.818,VALID,0,VALID,97.5492,VALID,0,VALID,19.6413,VALID,4,VALID,0,
2012-04-09, 03:48:04,VALID,915.833,VALID,0,VALID,97.5416,VALID,0,VALID,19.6428,VALID,4,VALID,0,
2012-04-09, 03:49:04,VALID,915.835,VALID,0,VALID,97.5721,VALID,0,VALID,19.6623,VALID,4,VALID,0,